DW0542 Weather Reports


time (UTC)temp
C
wind
direction
speed
KPH
gust
KPH
rain 1hr
cm
rain 24hr
cm
rain mn
cm
humidity
%
barometer
mb
20260507084519 10 310 9.7 16.1 0.33 1.17 0.69 89 1007.1
20260507083016 10 317 11.3 17.7 0.25 1.07 0.58 88 1007.6
20260507081513 10 288 8.0 16.1 0.15 0.94 0.46 88 1007.5
20260507080010 10 294 8.0 14.5 0.10 0.89 0.41 87 1007.6
20260507074507 10 322 8.0 16.1 0.05 0.84 0.36 87 1007.4
20260507073004 11 288 11.3 20.9 0.03 0.81 0.33 88 1007.3
20260507071502 11 308 11.3 17.7 0.00 0.79 0.30 89 1007.3
20260507070100 11 330 12.9 19.3 0.00 0.79 0.30 89 1006.9
20260507064603 11 328 4.8 12.9 0.00 0.79 0.30 88 1006.1
20260507063105 11 293 4.8 14.5 0.00 0.79 0.30 88 1006.5
20260507061553 11 295 11.3 17.7 0.00 0.79 0.30 88 1006.7
20260507060050 11 297 8.0 16.1 0.00 0.79 0.30 89 1006.7
20260507054548 11 293 11.3 19.3 0.00 0.79 0.30 88 1006.8
20260507053046 12 322 9.7 16.1 0.00 0.79 0.30 90 1007.0
20260507051544 12 276 6.4 16.1 0.00 0.79 0.30 89 1007.0
20260507050041 12 274 6.4 14.5 0.00 0.79 0.30 90 1006.8
20260507044538 12 274 8.0 22.5 0.03 0.79 0.30 90 1006.8
20260507043034 13 264 8.0 14.5 0.15 0.79 0.30 91 1006.8
20260507041532 13 275 3.2 8.0 0.18 0.79 0.30 91 1007.1
20260507040032 13 274 3.2 8.0 0.20 0.79 0.30 91 1006.9
20260507034500 13 270 4.8 12.9 0.18 0.76 0.28 91 1007.0
20260507033107 13 257 8.0 20.9 0.05 0.64 0.15 92 1007.1
20260507031556 14 276 4.8 14.5 0.03 0.61 0.13 93 1007.0
20260507030054 14 209 6.4 14.5 0.00 0.58 0.10 93 1006.6
20260507024602 14 200 4.8 14.5 0.00 0.58 0.10 92 1006.5
20260507023050 14 189 1.6 16.1 0.00 0.58 0.10 92 1006.5
20260507021546 13 219 4.8 16.1 0.00 0.58 0.10 93 1006.3
20260507020104 13 190 0.0 12.9 0.00 0.58 0.10 93 1006.5
20260507014544 13 189 0.0 11.3 0.00 0.58 0.10 93 1006.5
20260507013049 13 181 3.2 17.7 0.00 0.58 0.10 92 1006.4
20260507011524 13 185 0.0 9.7 0.00 0.58 0.10 92 1006.2
20260507010031 13 183 1.6 12.9 0.00 0.58 0.10 92 1006.6
20260507004522 13 200 8.0 17.7 0.00 0.58 0.10 92 1006.7
20260507003021 13 182 4.8 16.1 0.00 0.58 0.10 92 1006.8
20260507001600 13 196 4.8 17.7 0.00 0.58 0.10 92 1006.6
20260507000101 13 196 1.6 16.1 0.03 0.58 0.10 92 1006.4
20260506234557 13 128 0.0 17.7 0.05 0.58 0.10 92 1006.4
20260506233108 13 208 1.6 14.5 0.08 0.58 0.10 92 1006.2
20260506231559 13 178 0.0 11.3 0.08 0.58 0.10 92 1006.3
20260506230053 13 178 0.0 8.0 0.05 0.56 0.08 91 1006.2
20260506224553 13 185 0.0 11.3 0.05 0.53 0.05 91 1006.3
20260506223049 13 185 1.6 14.5 0.03 0.51 0.03 91 1006.2
20260506221549 14 151 0.0 8.0 0.05 0.51 0.03 91 1006.2
20260506220046 14 182 1.6 8.0 0.10 0.51 0.03 91 1006.2
20260506214544 14 186 0.0 8.0 0.10 0.48 0.00 91 1006.4
20260506213056 14 165 0.0 4.8 0.18 0.48 0.48 91 1006.4
20260506211538 14 89 0.0 11.3 0.20 0.46 0.46 91 1006.6
20260506210036 14 152 1.6 11.3 0.18 0.41 0.41 91 1006.8
20260506204536 14 162 0.0 0.0 0.18 0.38 0.38 90 1006.9
20260506201502 14 105 0.0 9.7 0.08 0.25 0.25 90 1007.0
20260506200059 14 179 0.0 12.9 0.10 0.23 0.23 89 1007.2
20260506194602 14 181 0.0 25.7 0.10 0.20 0.20 89 1007.5
20260506193055 15 130 0.0 8.0 0.15 0.20 0.20 88 1007.4
20260506191555 15 114 0.0 8.0 0.15 0.18 0.18 88 1007.5
20260506190053 15 155 0.0 9.7 0.13 0.13 0.13 86 1007.4
20260506184553 15 163 1.6 12.9 0.10 0.10 0.10 84 1007.6
20260506183056 16 173 0.0 6.4 0.05 0.05 0.05 82 1007.9
20260506181613 16 175 0.0 11.3 0.03 0.03 0.03 79 1008.0
20260506180045 17 159 0.0 14.5 0.00 0.00 0.00 76 1008.1
20260506174545 17 197 8.0 25.7 0.00 0.00 0.00 72 1008.2
20260506173055 18 166 1.6 27.4 0.00 0.00 0.00 69 1008.3
20260506171542 19 177 0.0 27.4 0.00 0.00 0.00 67 1008.4
20260506170041 20 175 1.6 29.0 0.00 0.00 0.00 65 1008.2
20260506164541 20 198 1.6 16.1 0.00 0.00 0.00 63 1008.1
20260506163040 20 168 1.6 16.1 0.00 0.00 0.00 64 1008.4
20260506161538 20 181 0.0 25.7 0.00 0.00 0.00 65 1008.8
20260506160013 20 98 0.0 12.9 0.00 0.00 0.00 65 1008.8
20260506154512 20 191 0.0 16.1 0.00 0.00 0.00 64 1009.0
20260506153003 20 168 12.9 33.8 0.00 0.00 0.00 64 1009.1
20260506151503 20 175 1.6 25.7 0.00 0.00 0.00 65 1009.2
20260506150002 19 177 3.2 27.4 0.00 0.00 0.00 67 1009.3
20260506144500 18 200 0.0 14.5 0.00 0.00 0.00 69 1009.6
20260506143059 18 201 3.2 16.1 0.00 0.00 0.00 71 1009.6
20260506141557 18 176 0.0 16.1 0.00 0.00 0.00 70 1009.7
20260506134556 18 173 0.0 17.7 0.00 0.00 0.00 74 1009.5
20260506133026 17 176 1.6 22.5 0.00 0.00 0.00 75 1009.5
20260506131625 17 169 1.6 14.5 0.00 0.00 0.00 78 1009.8
20260506130022 16 189 0.0 12.9 0.00 0.00 0.00 81 1010.0
20260506124521 15 178 0.0 22.5 0.00 0.00 0.00 81 1010.1
20260506123020 15 129 0.0 9.7 0.00 0.00 0.00 82 1010.1
20260506121520 15 130 0.0 11.3 0.00 0.00 0.00 83 1010.3
20260506120100 15 168 0.0 9.7 0.00 0.00 0.00 84 1010.0
20260506114609 14 190 1.6 11.3 0.00 0.00 0.00 85 1010.3
20260506113058 14 67 0.0 11.3 0.00 0.00 0.00 85 1010.5
20260506111517 14 205 1.6 16.1 0.00 0.00 0.00 85 1010.6
20260506110014 13 119 0.0 8.0 0.00 0.00 0.00 86 1010.5
20260506104513 13 159 0.0 9.7 0.00 0.00 0.00 86 1010.3
20260506103014 13 93 0.0 3.2 0.00 0.00 0.00 86 1010.4
20260506101512 13 173 0.0 0.0 0.00 0.00 0.00 86 1010.4
20260506100011 13 179 0.0 8.0 0.00 0.00 0.00 85 1010.3
20260506094508 13 168 0.0 4.8 0.00 0.00 0.00 85 1010.4
20260506093006 13 192 3.2 16.1 0.00 0.00 0.00 85 1010.2
20260506091506 13 180 0.0 6.4 0.00 0.00 0.00 85 1010.2
20260506090002 13 186 0.0 14.5 0.00 0.00 0.00 84 1010.4
20260506084607 13 131 0.0 4.8 0.00 0.00 0.00 84 1010.4